Location: Sagn�
(15.2046°N, 12.7898°W)
Time: 13:44:34
(UTC+00:00)

GPS 2-17 Rocket1 - Pass Details

Date: 08 May 2021
Orbit: 571 x 658 km, 20.3° (Epoch: 14 June)

Event Time Altitude Azimuth Distance (km) Brightness Sun altitude
Rises 19:24:29 0° 246° (WSW) 2,907 7.3 -4.0°
Reaches altitude 10° 19:26:51 10° 243° (WSW) 2,013 6.4 -4.5°
Maximum altitude 19:31:32 62° 163° (SSE) 724 3.3 -5.6°
Drops below altitude 10° 19:36:18 10° 82° (E) 2,049 5.2 -6.7°
Enters shadow 19:37:33 - 80° (E) 2,516 5.6 -6.9°
